This is the latest recevied weather packets stored in our database for station/object UR7D-12. If no packets are shown the sender has not sent any weather packets the latest 10 day(s).
| Time | Temp. | Humidity | Pressure | Rain* | Wind** | Luminosity | Snow |
|---|---|---|---|---|---|---|---|
| 1778057857 | 21.11° C | 53% | 987.6 hPa | 0 mm | - | - | - |
| 1778057556 | 21.11° C | 53% | 987.6 hPa | 0 mm | - | - | - |
| 1778057258 | 21.11° C | 53% | 987.7 hPa | 0 mm | - | - | - |
| 1778056956 | 21.11° C | 52% | 987.5 hPa | 0 mm | - | - | - |
| 1778056656 | 21.11° C | 52% | 987.7 hPa | 0 mm | - | - | - |
| 1778056355 | 21.11° C | 53% | 987.7 hPa | 0 mm | - | - | - |
| 1778056055 | 20.56° C | 54% | 987.6 hPa | 0 mm | - | - | - |
| 1778055755 | 20.56° C | 53% | 987.6 hPa | 0 mm | - | - | - |
| 1778055455 | 21.11° C | 53% | 987.5 hPa | 0 mm | - | - | - |
| 1778054854 | 20.56° C | 53% | 987.4 hPa | 0 mm | - | - | - |
| 1778054555 | 20.56° C | 55% | 987.3 hPa | 0 mm | - | - | - |
| 1778053955 | 19.44° C | 55% | 987.3 hPa | 0 mm | - | - | - |
| 1778053653 | 19.44° C | 55% | 987.2 hPa | 0 mm | - | - | - |
| 1778053054 | 19.44° C | 56% | 987.3 hPa | 0 mm | - | - | - |
| 1778052752 | 18.89° C | 56% | 987.4 hPa | 0 mm | - | - | - |
| 1778052452 | 18.89° C | 55% | 987.4 hPa | 0 mm | - | - | - |
| 1778052151 | 18.89° C | 58% | 987.4 hPa | 0 mm | - | - | - |
| 1778051851 | 18.89° C | 56% | 987.4 hPa | 0 mm | - | - | - |
| 1778051252 | 18.89° C | 57% | 987.5 hPa | 0 mm | - | - | - |
| 1778050952 | 18.33° C | 56% | 987.4 hPa | 0 mm | - | - | - |
| 1778050350 | 17.78° C | 58% | 987.3 hPa | 0 mm | - | - | - |
| 1778050049 | 17.22° C | 58% | 987.2 hPa | 0 mm | - | - | - |
| 1778049751 | 16.67° C | 58% | 987.2 hPa | 0 mm | - | - | - |
| 1778049449 | 16.67° C | 60% | 987.2 hPa | 0 mm | - | - | - |
| 1778049149 | 16.67° C | 59% | 987.2 hPa | 0 mm | - | - | - |
* Rain latest hour (hover to see other rain measurements)
** Current wind speed in m/s (hover to see current wind gust speed)